Find Feng Yun 4B

NORAD ID: 48808 Int'l Des: 2021-047 Owner: NSMC Country: CN operational
HEOCIRCULARGSO

リアルタイム位置

3D地球を読み込み中...

Feng Yun 4Bについて

説明を読み込み中...

次回通過

Passes for default location (London). Set your location on the main map for personalized predictions.

高度履歴

Loading altitude history...

軌道要素

1 48808U 21047A 26104.46479266 -.00000326 00000-0 00000+0 0 9990
2 48808 0.0373 323.7410 0005339 48.8533 102.0124 1.00275567 17948
Epoch: Apr 14, 2026 • Age: 7 hours

現在のステータス

高度 35804.6 km
速度 3.07 km/s
衛星直下点 -0.02°S, 104.61°E
打ち上げ日 Jun 2, 2021
運用期間 4.8 years
タイプ other

技術仕様

分類 Payload
質量 5380.00 kg
乾燥質量 3000.00 kg
総質量 5380.00 kg
長さ 4.20 m
直径 3.30 m
スパン 10.00 m
形状 Box + panel
製造者 SISE
バスタイプ FY-4
フェーズステータス In Orbit
所有者/国 NSMC/CN

Most Searched